Weather History for KRND - August, 2013

Change the Weather History Date:

Monday, August 26, 2013

  Actual Average Record
Temperature  
Mean Temperature 80 °F -  
Max Temperature 90 °F 91 °F 100 °F (2002)
Min Temperature 73 °F 72 °F 66 °F (1997)
Cooling Degree Days 16    
Growing Degree Days 30 (Base 50)    
Moisture  
Dew Point 71 °F    
Average Humidity 79    
Maximum Humidity 94    
Minimum Humidity 50    
Precipitation  
Precipitation 0.00 in - - ()
Sea Level Pressure  
Sea Level Pressure 30.06 in    
Wind  
Wind Speed 8 mph (East)    
Max Wind Speed 21 mph    
Max Gust Speed 25 mph    
Visibility 10 miles    
Events Rain    
Averages and records for this station are not official NWS values.
T = Trace of Precipitation, MM = Missing Value Source: NWS Daily Summary

Daily Weather History Graph

Daily Weather History Graph

Search for Another Location

Airport or City:

Trip Planner

Search our weather history database for the weather conditions in past years. The results will help you decide how hot, cold, wet, or windy it might be!

Date:

Astronomy

Aug. 26, 2013 Rise Set
Actual Time 7:07 AM CDT 8:01 PM CDT
Civil Twilight 6:42 AM CDT 8:26 PM CDT
Nautical Twilight 6:14 AM CDT 8:54 PM CDT
Astronomical Twilight 5:44 AM CDT 9:24 PM CDT
Moon 11:45 PM CDT (8/26) 12:39 PM CDT (8/26)
Length of Visible Light 13h 43m
Length of Day
12h 54m
Waning Gibbous, 66% of the Moon is Illuminated
Aug 26
Waning Gibbous
Aug 28
Last Quarter
Sep 5
New
Sep 12
First Quarter
Sep 19
Full

Hourly Weather History & Observations

Time (CDT) Temp. Heat Index Dew Point Humidity Pressure Visibility Wind Dir Wind Speed Gust Speed Precip Events Conditions
12:58 AM 78.4 °F - 69.3 °F 73% 30.06 in 10.0 mi East 4.6 mph - N/A   Clear
1:58 AM 77.4 °F - 69.4 °F 76% 30.04 in 10.0 mi East 6.9 mph - N/A   Clear
2:58 AM 75.9 °F - 69.4 °F 80% 30.04 in 10.0 mi ENE 4.6 mph - N/A   Clear
3:58 AM 76.3 °F - 69.8 °F 80% 30.04 in 10.0 mi ENE 6.9 mph - N/A   Mostly Cloudy
4:33 AM 77.0 °F - 69.8 °F 78% 30.07 in 10.0 mi ENE 8.1 mph - N/A   Mostly Cloudy
4:38 AM 77.0 °F - 69.8 °F 78% 30.06 in 10.0 mi ENE 8.1 mph - N/A   Mostly Cloudy
4:48 AM 77.0 °F - 69.8 °F 78% 30.06 in 10.0 mi NE 8.1 mph - N/A   Mostly Cloudy
4:58 AM 76.3 °F - 70.0 °F 81% 30.04 in 10.0 mi NE 8.1 mph - N/A   Mostly Cloudy
5:03 AM 77.0 °F - 69.8 °F 78% 30.07 in 10.0 mi NE 5.8 mph - N/A   Mostly Cloudy
5:18 AM 77.0 °F - 69.8 °F 78% 30.07 in 10.0 mi NE 6.9 mph - N/A   Mostly Cloudy
5:23 AM 77.0 °F - 69.8 °F 78% 30.07 in 10.0 mi NE 5.8 mph - N/A   Mostly Cloudy
5:28 AM 77.0 °F - 69.8 °F 78% 30.07 in 10.0 mi NE 5.8 mph - N/A   Mostly Cloudy
5:38 AM 77.0 °F - 69.8 °F 78% 30.07 in 10.0 mi ENE 6.9 mph - N/A   Mostly Cloudy
5:43 AM 77.0 °F - 69.8 °F 78% 30.07 in 10.0 mi ENE 8.1 mph - N/A   Mostly Cloudy
5:51 AM 77.0 °F - 69.8 °F 78% 30.07 in 10.0 mi ENE 9.2 mph - N/A   Light Drizzle
5:56 AM 75.2 °F - 69.8 °F 83% 30.07 in 10.0 mi ENE 8.1 mph - N/A   Light Drizzle
5:58 AM 75.9 °F - 70.7 °F 84% 30.04 in 10.0 mi ENE 9.2 mph - 0.00 in   Light Drizzle
6:01 AM 75.2 °F - 71.6 °F 89% 30.07 in 10.0 mi ENE 6.9 mph - N/A   Mostly Cloudy
6:58 AM 76.1 °F - 71.2 °F 85% 30.06 in 10.0 mi NE 5.8 mph - 0.00 in   Overcast
7:58 AM 76.6 °F - 71.4 °F 84% 30.07 in 10.0 mi ENE 9.2 mph - N/A   Mostly Cloudy
8:08 AM 77.0 °F - 71.6 °F 83% 30.10 in 10.0 mi ENE 6.9 mph - N/A   Mostly Cloudy
8:13 AM 77.0 °F - 71.6 °F 83% 30.10 in 10.0 mi ENE 6.9 mph - N/A   Mostly Cloudy
8:28 AM 77.0 °F - 71.6 °F 83% 30.10 in 10.0 mi East 10.4 mph - N/A   Mostly Cloudy
8:58 AM 77.9 °F - 71.8 °F 81% 30.09 in 10.0 mi East 10.4 mph - N/A   Mostly Cloudy
9:18 AM 78.8 °F - 71.6 °F 78% 30.11 in 10.0 mi East 11.5 mph - N/A   Mostly Cloudy
9:58 AM 80.8 °F 84.7 °F 71.4 °F 73% 30.10 in 10.0 mi ENE 11.5 mph - N/A   Mostly Cloudy
10:13 AM 82.4 °F 87.2 °F 71.6 °F 70% 30.12 in 10.0 mi East 10.4 mph - N/A   Mostly Cloudy
10:28 AM 82.4 °F 87.2 °F 71.6 °F 70% 30.12 in 10.0 mi ENE 11.5 mph - N/A   Mostly Cloudy
10:43 AM 82.4 °F 86.3 °F 69.8 °F 66% 30.12 in 10.0 mi ENE 11.5 mph - N/A   Mostly Cloudy
10:58 AM 82.6 °F 86.8 °F 70.5 °F 67% 30.10 in 10.0 mi ENE 10.4 mph - N/A   Mostly Cloudy
11:13 AM 82.4 °F 86.3 °F 69.8 °F 66% 30.12 in 10.0 mi East 9.2 mph - N/A   Scattered Clouds
11:38 AM 84.2 °F 88.4 °F 69.8 °F 62% 30.12 in 10.0 mi NNE 8.1 mph - N/A   Mostly Cloudy
11:58 AM 83.3 °F 86.9 °F 69.3 °F 62% 30.09 in 10.0 mi ENE 10.4 mph - N/A   Mostly Cloudy
12:13 PM 84.2 °F 87.3 °F 68.0 °F 58% 30.11 in 10.0 mi Variable 6.9 mph - N/A   Scattered Clouds
12:36 PM 87.8 °F 91.4 °F 68.0 °F 52% 30.08 in 10.0 mi ENE 12.7 mph - N/A   Mostly Cloudy
12:58 PM 86.9 °F 90.3 °F 67.6 °F 53% 30.06 in 10.0 mi NE 11.5 mph - N/A   Mostly Cloudy
1:58 PM 88.7 °F 92.2 °F 68.0 °F 50% 30.05 in 10.0 mi ENE 15.0 mph 23.0 mph N/A   Scattered Clouds
2:58 PM 86.7 °F 89.9 °F 67.6 °F 53% 30.04 in 10.0 mi ENE 13.8 mph 25.3 mph N/A   Mostly Cloudy
3:09 PM 82.4 °F 86.3 °F 69.8 °F 66% 30.06 in 10.0 mi ENE 10.4 mph - N/A   Light Drizzle
3:58 PM 86.4 °F 89.7 °F 68.2 °F 54% 30.03 in 10.0 mi East 20.7 mph 24.2 mph N/A   Mostly Cloudy
4:09 PM 82.4 °F 86.3 °F 69.8 °F 66% 30.05 in 10.0 mi ENE 15.0 mph - N/A Rain Light Rain
4:14 PM 80.6 °F 83.2 °F 68.0 °F 65% 30.05 in 10.0 mi ENE 10.4 mph 21.9 mph N/A   Light Drizzle
4:19 PM 80.6 °F 83.2 °F 68.0 °F 65% 30.05 in 10.0 mi ENE 12.7 mph - N/A   Overcast
4:29 PM 78.8 °F - 69.8 °F 74% 30.06 in 10.0 mi ESE 11.5 mph - N/A   Light Drizzle
4:34 PM 78.8 °F - 71.6 °F 78% 30.06 in 10.0 mi East 11.5 mph - N/A   Scattered Clouds
4:51 PM 78.8 °F - 69.8 °F 74% 30.06 in 10.0 mi East 10.4 mph - N/A   Light Drizzle
4:52 PM 78.8 °F - 71.6 °F 78% 30.06 in 9.0 mi East 11.5 mph - N/A   Mostly Cloudy
4:53 PM 78.8 °F - 71.6 °F 78% 30.06 in 8.0 mi East 10.4 mph - N/A Rain Light Rain
4:58 PM 78.4 °F - 71.8 °F 80% 30.04 in 5.0 mi East 9.2 mph - 0.00 in Rain Light Rain
5:08 PM 77.0 °F - 73.4 °F 89% 30.06 in 9.0 mi ESE 8.1 mph - N/A   Light Drizzle
5:35 PM 77.0 °F - 71.6 °F 83% 30.05 in 10.0 mi SE 5.8 mph - N/A   Partly Cloudy
5:58 PM 76.3 °F - 72.0 °F 86% 30.04 in 10.0 mi SE 5.8 mph - 0.00 in   Scattered Clouds
6:48 PM 77.0 °F - 71.6 °F 83% 30.05 in 10.0 mi SE 5.8 mph - N/A   Mostly Cloudy
6:53 PM 77.0 °F - 71.6 °F 83% 30.05 in 10.0 mi ESE 5.8 mph - N/A   Mostly Cloudy
6:56 PM 77.0 °F - 71.6 °F 83% 30.05 in 9.0 mi East 5.8 mph - N/A   Light Drizzle
6:58 PM 77.0 °F - 71.6 °F 83% 30.03 in 8.0 mi East 5.8 mph - N/A   Light Drizzle
7:03 PM 77.0 °F - 71.6 °F 83% 30.05 in 8.0 mi East 4.6 mph - N/A   Light Drizzle
7:25 PM 75.2 °F - 71.6 °F 89% 30.04 in 10.0 mi NE 3.5 mph - N/A   Scattered Clouds
7:58 PM 75.2 °F - 72.7 °F 92% 30.02 in 10.0 mi ENE 4.6 mph - 0.00 in   Scattered Clouds
8:48 PM 75.2 °F - 71.6 °F 89% 30.05 in 10.0 mi ENE 6.9 mph - N/A   Mostly Cloudy
8:53 PM 75.2 °F - 71.6 °F 89% 30.05 in 10.0 mi ENE 5.8 mph - N/A   Mostly Cloudy
8:58 PM 75.0 °F - 72.0 °F 90% 30.03 in 10.0 mi ENE 6.9 mph - N/A   Mostly Cloudy
9:13 PM 75.2 °F - 71.6 °F 89% 30.05 in 10.0 mi ENE 5.8 mph - N/A   Mostly Cloudy
9:23 PM 75.2 °F - 71.6 °F 89% 30.06 in 10.0 mi East 6.9 mph - N/A   Mostly Cloudy
9:28 PM 75.2 °F - 71.6 °F 89% 30.06 in 10.0 mi East 9.2 mph - N/A   Mostly Cloudy
9:31 PM 75.2 °F - 71.6 °F 89% 30.06 in 10.0 mi East 10.4 mph - N/A   Overcast
9:36 PM 75.2 °F - 71.6 °F 89% 30.06 in 10.0 mi East 10.4 mph - N/A   Overcast
9:56 PM 73.4 °F - 71.6 °F 94% 30.06 in 10.0 mi ESE 11.5 mph - N/A   Overcast
9:58 PM 73.4 °F - 71.6 °F 94% 30.04 in 10.0 mi ESE 12.7 mph - N/A   Overcast
10:03 PM 73.4 °F - 71.6 °F 94% 30.06 in 10.0 mi ESE 11.5 mph - N/A   Overcast
10:08 PM 73.4 °F - 71.6 °F 94% 30.06 in 10.0 mi ESE 11.5 mph - N/A   Overcast
10:13 PM 73.4 °F - 71.6 °F 94% 30.06 in 10.0 mi ESE 12.7 mph - N/A   Overcast
10:23 PM 73.4 °F - 69.8 °F 88% 30.06 in 10.0 mi ESE 10.4 mph - N/A   Overcast
10:58 PM 74.1 °F - 70.7 °F 89% 30.06 in 10.0 mi SE 9.2 mph - N/A   Mostly Cloudy
11:23 PM 73.4 °F - 71.6 °F 94% 30.08 in 10.0 mi SE 9.2 mph - N/A   Mostly Cloudy
11:56 PM 73.4 °F - 71.6 °F 94% 30.07 in 10.0 mi SE 5.8 mph - N/A   Scattered Clouds
11:58 PM 73.8 °F - 71.1 °F 91% 30.05 in 10.0 mi SE 6.9 mph - N/A   Scattered Clouds